Temp
78 77 76 76 76 76 76 76 76 76 76 76 76 76 74 72 66 65 66 68 73 77 77 75 75 76 76 76 76 76 76 76 75
77 76 76 76 76 76 76 76 76 76 75 76 76 75 73 69 65 64 64 66 75 77 77 76 76 76 76 76 76 76 76 76 76
76 75 75 75 76 76 76 76 76 75 75 75 75 74 72 70 66 65 64 69 75 77 78 77 76 76 76 76 76 75 76 77 75
74 74 74 74 75 75 75 75 75 76 75 74 73 72 71 68 66 68 65 69 74 77 78 77 76 76 76 76 76 76 76 75 75
70 69 70 72 73 73 74 74 75 74 74 74 73 70 70 68 66 66 65 71 75 76 77 77 77 76 76 75 76 75 75 75 75
63 65 67 69 71 71 72 73 73 72 70 71 71 69 68 67 67 67 69 72 74 76 77 77 77 77 76 75 75 75 75 75 75
62 60 65 65 66 67 69 69 69 68 67 67 68 67 67 67 67 67 70 72 75 76 76 76 76 76 76 75 75 75 75 75 75
55 54 55 55 60 57 59 58 59 58 61 65 66 66 66 68 68 69 70 72 75 76 76 76 76 76 75 75 75 75 75 75 75
53 53 54 53 53 53 54 54 54 56 57 58 62 64 66 69 69 69 68 70 73 75 76 76 76 76 75 75 75 74 74 74 74
53 53 53 53 53 53 53 53 54 54 55 55 57 59 62 64 67 68 65 68 70 73 74 76 76 76 75 75 75 74 74 74 74
52 52 52 52 52 53 53 53 53 54 53 55 55 56 56 59 62 65 65 66 68 71 73 74 76 76 77 76 75 74 74 74 73
50 50 50 50 51 52 52 53 53 53 55 53 55 55 55 56 57 60 63 64 65 67 70 72 74 75 76 76 75 74 74 74 73
49 48 48 49 50 50 50 50 51 51 51 51 53 54 55 55 55 56 57 60 62 64 67 69 70 71 73 75 74 75 74 73 72
48 47 47 48 48 48 48 49 49 49 50 53 54 54 54 54 59 55 55 56 58 59 63 65 65 67 69 72 74 74 73 70 69
47 47 47 47 46 46 46 46 48 49 49 55 55 52 53 53 53 53 57 55 57 56 58 58 60 63 67 69 72 73 73 73 72
47 47 46 46 45 44 45 46 47 47 49 48 49 50 52 52 53 53 53 56 57 57 56 55 56 59 63 65 67 68 70 72 72
49 46 45 45 44 43 43 44 45 46 48 46 46 44 48 51 54 53 55 54 54 55 57 55 56 56 57 58 64 65 68 69 70
48 47 45 44 44 43 43 44 45 48 47 48 48 45 43 48 50 52 52 52 52 53 54 56 56 55 55 57 57 61 64 67 69
47 47 46 45 45 44 44 49 45 45 44 48 53 51 50 47 43 48 50 50 53 51 52 52 53 54 53 56 57 59 62 66 69
46 46 45 45 46 47 45 45 44 45 46 46 50 51 50 45 46 43 44 49 50 51 51 51 50 52 52 52 54 59 62 64 66
MSLP
1015.25 1015.30 1015.24 1015.18 1015.27 1015.33 1015.34 1015.32 1015.34 1015.38 1015.39 1015.46 1015.49 1015.54 1015.67 1015.79 1015.97 1016.05 1015.97 1015.77 1015.69 1015.51 1015.56 1015.67 1015.76 1015.81 1015.84 1015.87 1015.93 1015.98 1016.01 1015.99 1016.22
1015.23 1015.11 1015.09 1015.04 1015.03 1015.03 1015.06 1015.07 1015.00 1015.14 1015.21 1015.28 1015.31 1015.38 1015.49 1015.67 1015.86 1016.01 1015.96 1015.73 1015.53 1015.37 1015.37 1015.57 1015.64 1015.73 1015.83 1015.91 1015.99 1016.03 1016.08 1016.03 1016.33
1015.33 1015.15 1015.02 1014.86 1014.80 1014.72 1014.77 1014.77 1014.74 1014.82 1014.88 1014.97 1015.05 1015.16 1015.32 1015.43 1015.58 1015.70 1015.76 1015.61 1015.38 1015.22 1015.10 1015.23 1015.45 1015.56 1015.70 1015.81 1015.90 1015.97 1016.04 1016.10 1016.40
1015.49 1015.23 1015.07 1014.87 1014.82 1014.71 1014.67 1014.53 1014.53 1014.48 1014.52 1014.63 1014.73 1014.84 1015.02 1015.21 1015.34 1015.41 1015.51 1015.45 1015.29 1015.10 1014.90 1015.02 1015.21 1015.36 1015.50 1015.59 1015.68 1015.82 1015.95 1016.15 1016.28
1015.79 1015.58 1015.30 1015.04 1014.88 1014.79 1014.75 1014.55 1014.41 1014.28 1014.22 1014.30 1014.33 1014.45 1014.68 1014.82 1014.97 1015.08 1015.14 1015.14 1015.06 1014.93 1014.76 1014.77 1014.94 1015.11 1015.22 1015.38 1015.44 1015.58 1015.70 1015.90 1015.96
1016.07 1015.82 1015.59 1015.27 1015.01 1014.83 1014.65 1014.41 1014.29 1014.24 1014.10 1014.01 1014.03 1014.11 1014.34 1014.44 1014.56 1014.62 1014.59 1014.68 1014.68 1014.58 1014.48 1014.43 1014.53 1014.64 1014.82 1015.00 1015.15 1015.29 1015.45 1015.49 1015.67
1016.16 1016.01 1015.72 1015.49 1015.27 1015.05 1014.81 1014.69 1014.48 1014.29 1014.16 1013.99 1013.91 1013.99 1013.99 1014.14 1014.15 1014.16 1014.10 1014.11 1013.99 1014.02 1013.98 1013.96 1014.01 1014.13 1014.30 1014.45 1014.66 1014.85 1014.99 1015.07 1015.23
1016.25 1016.13 1015.98 1015.79 1015.51 1015.37 1015.13 1014.92 1014.79 1014.67 1014.45 1014.13 1013.95 1013.88 1013.87 1013.79 1013.77 1013.66 1013.62 1013.57 1013.26 1013.25 1013.27 1013.32 1013.42 1013.53 1013.65 1013.84 1014.06 1014.25 1014.44 1014.61 1014.72
1016.31 1016.22 1016.05 1015.96 1015.76 1015.64 1015.42 1015.26 1015.04 1014.80 1014.59 1014.39 1014.01 1013.78 1013.67 1013.53 1013.44 1013.27 1013.21 1013.10 1012.83 1012.35 1012.63 1012.60 1012.74 1012.86 1013.03 1013.19 1013.43 1013.63 1013.79 1013.96 1014.13
1016.38 1016.25 1016.15 1015.99 1015.83 1015.67 1015.52 1015.30 1015.07 1014.85 1014.62 1014.42 1014.28 1013.95 1013.64 1013.43 1013.24 1013.04 1012.90 1012.80 1012.65 1012.41 1012.19 1012.12 1012.17 1012.25 1012.51 1012.64 1012.70 1012.86 1013.04 1013.22 1013.41
1016.49 1016.36 1016.19 1016.04 1015.87 1015.67 1015.48 1015.32 1015.08 1014.87 1014.62 1014.38 1014.09 1013.99 1013.79 1013.48 1013.17 1012.94 1012.75 1012.59 1012.42 1012.22 1011.90 1011.66 1011.59 1011.59 1011.67 1011.88 1012.01 1012.10 1012.23 1012.37 1012.53
1016.66 1016.53 1016.39 1016.13 1015.88 1015.66 1015.37 1015.09 1014.83 1014.78 1014.55 1014.35 1014.08 1013.72 1013.48 1013.33 1013.13 1012.87 1012.57 1012.32 1012.13 1011.99 1011.75 1011.46 1011.26 1011.11 1011.13 1011.07 1011.17 1011.38 1011.40 1011.49 1011.74
1016.76 1016.70 1016.53 1016.28 1015.99 1015.73 1015.54 1015.27 1014.99 1014.76 1014.53 1014.27 1013.82 1013.55 1013.26 1013.04 1012.85 1012.64 1012.43 1012.20 1012.01 1011.82 1011.54 1011.34 1011.18 1010.99 1010.83 1010.54 1010.58 1010.57 1010.82 1011.26 1011.37
1016.86 1016.74 1016.58 1016.33 1016.12 1015.89 1015.71 1015.41 1015.15 1014.84 1014.42 1014.03 1013.59 1013.30 1013.03 1012.73 1012.36 1012.39 1012.19 1011.95 1011.75 1011.59 1011.38 1011.15 1011.00 1010.85 1010.68 1010.49 1010.23 1010.05 1010.18 1010.53 1009.78
1016.57 1016.61 1016.57 1016.39 1016.32 1016.03 1015.70 1015.45 1015.04 1014.78 1014.35 1013.84 1013.42 1013.04 1012.56 1012.35 1012.25 1012.11 1011.89 1011.76 1011.53 1011.45 1011.31 1011.09 1010.82 1010.59 1010.47 1010.27 1010.07 1009.88 1009.86 1010.00 1010.22
1016.52 1016.40 1016.52 1016.51 1016.40 1016.21 1015.84 1015.39 1015.12 1014.61 1014.18 1013.88 1013.38 1012.76 1012.28 1012.28 1012.12 1011.84 1011.72 1011.65 1011.40 1011.37 1011.31 1011.19 1010.94 1010.65 1010.40 1010.21 1010.00 1009.76 1009.50 1009.54 1009.76
1016.40 1016.43 1016.42 1016.57 1016.39 1016.16 1015.90 1015.56 1015.41 1014.89 1014.42 1014.27 1013.87 1013.40 1012.84 1012.33 1012.05 1011.96 1011.91 1011.85 1011.74 1011.61 1011.37 1011.25 1011.10 1010.95 1010.71 1010.42 1010.14 1009.88 1009.54 1009.12 1008.80
1016.44 1016.52 1016.35 1016.52 1016.30 1016.18 1016.01 1015.63 1015.59 1015.16 1014.67 1014.39 1014.28 1013.75 1013.67 1013.19 1012.24 1012.05 1012.03 1012.00 1011.97 1011.77 1011.54 1011.29 1011.13 1010.97 1010.84 1010.60 1010.34 1009.95 1009.61 1009.20 1008.76
1016.56 1016.54 1016.36 1016.41 1016.18 1015.96 1015.82 1015.55 1015.54 1015.41 1015.09 1014.40 1013.98 1014.12 1014.12 1013.90 1013.17 1012.54 1012.21 1012.21 1012.02 1011.84 1011.56 1011.45 1011.18 1010.95 1010.80 1010.58 1010.35 1010.02 1009.70 1009.28 1008.83
1016.59 1016.45 1016.32 1016.31 1015.97 1015.62 1015.57 1015.45 1015.37 1015.24 1015.03 1014.75 1014.30 1014.03 1013.95 1014.11 1014.06 1013.16 1012.71 1012.37 1012.01 1011.73 1011.53 1011.29 1011.09 1010.77 1010.60 1010.47 1010.23 1009.96 1009.66 1009.28 1008.94
Wind_Speed
11 11 11 9 9 9 9 9 10 9 10 10 9 9 7 5 2 3 5 5 9 9 7 6 5 4 3 4 3 5 7 10 7
12 10 10 10 10 11 11 11 11 11 11 12 11 10 8 4 4 4 5 4 11 12 9 8 8 8 6 5 4 6 9 6 4
13 13 11 10 11 11 12 12 12 12 13 13 12 10 9 5 5 5 4 7 10 15 12 12 11 11 10 9 8 7 7 6 6
11 12 11 13 12 10 10 11 12 12 12 13 12 11 10 6 4 4 4 9 10 15 14 12 13 13 12 12 11 12 9 7 10
11 11 11 11 12 12 12 11 11 13 12 12 12 11 10 6 5 4 4 12 13 12 18 15 15 14 14 14 13 12 12 12 12
7 10 12 12 12 12 12 11 10 10 9 11 11 10 4 6 5 4 10 14 15 16 16 16 17 17 16 16 15 15 15 15 13
6 6 9 11 12 12 13 13 12 8 4 3 6 3 5 5 5 5 13 18 20 19 19 18 17 18 17 18 18 18 17 18 15
3 3 4 4 6 4 6 6 4 6 4 4 3 4 4 4 5 8 14 19 24 20 22 19 19 21 20 20 21 19 18 18 16
4 3 4 4 3 5 5 4 5 6 6 6 5 5 5 5 5 7 13 18 24 24 21 19 20 22 23 23 21 21 20 20 19
4 3 3 3 4 3 4 4 4 5 6 5 5 6 5 5 5 5 10 15 20 22 23 22 22 23 25 24 23 23 22 22 21
3 4 4 4 4 4 4 4 4 4 4 6 5 6 6 6 5 4 5 11 15 19 22 22 21 23 24 27 25 24 24 24 24
4 4 4 4 4 5 4 4 3 4 4 5 5 5 5 5 6 5 4 5 9 12 17 20 20 19 23 25 27 25 26 26 25
4 4 4 4 4 4 4 3 4 4 4 4 5 4 4 5 6 5 4 4 3 6 10 12 14 16 17 21 26 27 24 24 25
3 4 4 5 4 4 4 3 3 3 4 4 4 4 4 5 4 6 6 6 5 4 7 10 10 12 14 15 17 22 25 19 28
2 3 4 4 4 4 4 3 3 3 4 5 5 5 5 4 4 5 4 4 5 4 4 4 4 8 11 13 15 16 17 14 16
4 1 3 4 4 4 5 3 3 3 2 3 4 4 4 3 2 2 2 2 3 3 4 3 3 3 9 10 13 15 17 17 16
3 2 3 4 3 5 4 3 3 3 2 2 2 3 4 4 3 3 3 4 3 4 5 4 5 4 4 6 11 13 14 14 16
3 3 2 3 2 3 3 3 4 4 3 3 2 3 2 5 3 4 2 5 4 4 4 5 5 5 4 6 7 11 12 13 12
5 4 3 4 2 3 2 3 2 2 3 4 2 2 1 3 5 3 4 3 5 5 4 4 5 5 4 6 8 11 11 13 14
5 5 5 5 3 2 3 4 3 1 2 2 2 1 1 1 3 6 4 4 4 4 4 4 4 5 4 4 6 10 12 15 15
Wind_Direction
269 262 250 244 244 251 261 255 231 218 214 224 233 237 238 233 230 255 284 271 227 229 209 194 199 196 186 179 154 139 142 130 128
292 277 263 262 248 246 252 257 243 228 222 229 233 237 237 221 223 233 261 286 236 239 217 211 213 206 209 199 206 208 173 142 165
336 331 317 277 271 265 253 252 260 246 240 231 231 233 234 234 230 233 244 263 257 249 239 218 217 215 219 221 227 221 215 206 208
345 338 333 331 326 319 296 270 263 263 254 245 234 227 231 227 231 238 230 249 264 248 246 224 223 228 227 229 225 221 222 209 222
349 350 347 345 343 338 322 315 310 289 262 254 250 228 228 232 228 227 230 250 257 261 250 232 230 233 232 224 224 227 224 220 230
344 343 350 353 352 349 346 329 317 313 309 264 252 238 219 216 225 231 237 244 252 254 253 255 234 232 234 228 226 227 227 226 231
347 340 351 354 352 351 352 354 352 342 317 296 277 238 222 223 231 231 241 253 251 249 249 248 244 228 229 226 225 227 232 233 215
344 339 341 342 351 345 347 349 355 344 337 318 292 263 247 239 238 242 240 252 262 256 250 247 248 228 224 224 225 226 226 230 237
332 331 331 336 336 330 334 331 324 327 327 321 306 277 264 270 261 253 248 254 265 262 261 253 245 235 230 225 225 225 226 226 227
325 331 335 331 334 336 331 327 320 318 318 315 313 305 291 266 263 263 251 254 264 273 278 269 259 248 241 234 227 227 227 226 225
338 337 337 339 344 326 321 315 312 306 308 306 308 297 296 295 282 263 268 268 273 275 276 277 273 259 254 244 238 232 229 228 226
343 340 341 339 335 332 334 324 321 319 314 295 296 287 278 283 289 286 270 276 280 286 290 290 285 276 267 262 247 240 235 230 228
344 345 337 332 337 336 339 327 327 320 318 302 295 293 290 283 279 277 275 282 285 297 299 302 300 300 295 270 261 251 245 241 238
351 334 324 339 341 346 340 329 317 308 312 298 287 288 282 275 274 271 273 269 273 281 289 294 294 296 301 302 294 275 266 267 243
358 334 339 351 343 338 335 315 305 278 281 304 295 279 263 268 278 272 284 282 284 287 296 307 303 295 299 302 303 301 299 288 272
338 9 353 349 344 322 315 301 320 312 319 307 312 287 289 306 301 303 267 317 338 340 336 330 335 331 326 326 327 316 305 295 285
312 359 352 340 341 344 342 357 327 296 349 323 279 336 336 345 322 348 4 8 351 0 353 353 4 359 351 344 340 335 330 314 299
321 319 341 320 342 337 320 337 8 340 311 331 278 347 338 332 336 355 42 16 4 330 329 328 337 335 331 332 324 320 328 332 325
330 307 312 291 290 318 307 342 321 318 304 324 37 3 344 334 321 320 336 339 331 319 313 312 310 311 312 311 308 314 330 329 323
320 310 311 297 289 274 282 314 317 268 278 272 301 324 311 256 254 299 304 306 273 283 287 287 291 297 301 303 300 316 324 324 315